Location: Palo Alto
(37.4420°N, 122.1420°W)
Time: 11:36:00
(UTC-07:00)

ARGOS - Visible Passes

Search period start: 24 July 2016 00:00
Search period end: 03 August 2016 00:00
Orbit: 819 x 836 km, 98.7° (Epoch: 23 July)

Date Brightness Start Highest point End Pass type
(mag) Time Alt. Az. Time Alt. Az. Time Alt. Az.
24 Jul 5.1 21:02:38 10° E 21:05:04 13° ENE 21:07:31 10° NNE visible
24 Jul 3.2 22:42:53 44° S 22:44:36 76° WSW 22:49:59 10° NNW visible
25 Jul 3.1 22:24:10 40° SSE 22:26:05 73° ENE 22:31:26 10° N visible
26 Jul 5.5 00:05:41 12° WSW 00:06:48 12° W 00:08:54 10° WNW visible
26 Jul 3.5 22:05:27 31° SE 22:07:37 49° ENE 22:12:45 10° N visible
26 Jul 5.1 23:46:59 18° WSW 23:48:04 19° W 23:51:48 10° NW visible
27 Jul 4.0 21:46:45 22° ESE 21:49:12 33° ENE 21:53:56 10° N visible
27 Jul 4.5 23:28:16 26° WSW 23:29:23 28° W 23:33:58 10° NW visible
28 Jul 4.5 21:28:02 15° ESE 21:30:50 23° ENE 21:34:55 10° NNE visible
28 Jul 4.0 23:09:33 37° SW 23:10:45 42° W 23:15:50 10° NNW visible
29 Jul 4.9 21:09:26 10° E 21:12:31 16° ENE 21:15:35 10° NNE visible
29 Jul 3.3 22:50:50 48° SSW 22:52:10 64° WSW 22:57:30 10° NNW visible
30 Jul 5.2 20:53:28 10° ENE 20:54:15 10° ENE 20:55:03 10° NE visible
30 Jul 3.0 22:32:08 50° SSE 22:33:38 85° ENE 22:39:00 10° NNW visible
31 Jul 3.3 22:13:25 39° SE 22:15:08 57° ENE 22:20:23 10° N visible
31 Jul 5.3 23:54:57 15° WSW 23:55:42 16° W 23:58:54 10° NW visible
01 Aug 3.8 21:54:43 28° ESE 21:56:41 39° ENE 22:01:37 10° N visible
01 Aug 4.8 23:36:15 23° WSW 23:37:00 24° W 23:41:17 10° NW visible
02 Aug 4.3 21:36:02 20° ESE 21:38:18 26° ENE 21:42:41 10° NNE visible
02 Aug 4.2 23:17:33 34° WSW 23:18:20 36° W 23:23:15 10° NNW visible
